Weather observations for the past three days for
Roosevelt Airport
Metric (Imperial)
Date Time (ast) Wind (kph) Vis. (km) Weather Sky Cond. Temperature (ºC) Relative Humidity Wind Chill (°C) Heat Index (°C) Pressure Precipitation (cm)
Air Dwpt 6 hour altimeter (cm) sea level (mb) 1 hr 3 hr 6 hr
Max. Min.
07 16:55 E 19 0.00 NULL NULL 28 23 74% 31 0 0.0
07 15:55 E 20 0.00 NULL NULL 28 23 74% 31 0 0.0
07 14:55 E 19 0.00 NULL NULL 30 23 66% 34 0 0.0
07 13:55 E 19 0.00 NULL NULL 29 23 70% 33 0 0.0
07 12:55 E 19 0.00 NULL NULL 29 24 74% 34 0 0.0
07 11:55 E 19 0.00 NULL NULL 30 23 66% 34 0 0.0
07 10:55 E 19 0.00 NULL NULL 30 23 66% 34 0 0.0
07 09:55 E 20 0.00 NULL NULL 29 23 70% 33 0 0.0
07 08:55 E 22 0.00 NULL NULL 28 23 74% 31 0 0.0
07 07:55 E 22 0.00 NULL NULL 28 22 70% 31 0 0.0
07 06:55 E 17 0.00 NULL NULL 27 23 79% 30 0 0.0
07 05:55 E 11 0.00 NULL NULL 26 22 79% 28 0 0.0
07 04:55 E 13 0.00 NULL NULL 25 22 83% 26 0 0.0
07 03:55 E 13 0.00 NULL NULL 25 22 83% 26 0 0.0
07 02:55 E 13 0.00 NULL NULL 26 22 79% 28 0 0.0
07 01:55 E 11 0.00 NULL NULL 26 22 79% 28 0 0.0
07 00:55 E 17 0.00 NULL NULL 26 22 79% 28 0 0.0
06 23:55 E 19 0.00 NULL NULL 27 23 79% 30 0 0.0
06 22:55 E 19 0.00 NULL NULL 26 23 84% 28 0 0.0
06 21:55 E 19 0.00 NULL NULL 26 23 84% 28 0 0.0
06 20:55 E 15 0.00 NULL NULL 26 22 79% 28 0 0.0
06 19:55 E 15 0.00 NULL NULL 27 22 74% 29 0 0.0
06 18:55 E 17 0.00 NULL NULL 27 22 74% 29 0 0.0
06 17:55 E 19 0.00 NULL NULL 28 23 74% 31 0 0.0
06 16:55 E 20 0.00 NULL NULL 28 23 74% 31 0 0.0
06 15:55 E 22 0.00 NULL NULL 29 24 74% 34 0 0.0
06 14:55 E 24 0.00 NULL NULL 29 24 74% 34 0 0.0
06 13:55 E 24 0.00 NULL NULL 29 24 74% 34 0 0.0
06 12:55 E 24 0.00 NULL NULL 30 24 70% 35 0 0.0
06 11:55 E 24 0.00 NULL NULL 29 24 74% 34 0 0.0
06 10:55 E 24 0.00 NULL NULL 30 24 70% 35 0 0.0
06 09:55 E 22 0.00 NULL NULL 29 24 74% 34 0 0.0
06 08:55 E 26 0.00 NULL NULL 29 24 74% 34 0 0.0
06 07:55 E 22 0.00 NULL NULL 28 23 74% 31 0 0.0
06 06:55 E 22 0.00 NULL NULL 27 24 84% 30 0 0.0
06 05:55 E 19 0.00 NULL NULL 26 23 84% 28 0 0.0
06 04:55 E 19 0.00 NULL NULL 26 23 84% 28 0 0.0
06 03:55 E 17 0.00 NULL NULL 26 23 84% 28 0 0.0
06 02:55 E 19 0.00 NULL NULL 26 23 84% 28 0 0.0
06 01:55 E 17 0.00 NULL NULL 26 23 84% 28 0 0.0
06 00:55 E 19 0.00 NULL NULL 26 23 84% 28 0 0.0
05 23:55 E 20 0.00 NULL NULL 26 23 84% 28 0 0.0
05 22:55 E 19 0.00 NULL NULL 26 23 84% 28 0 0.0
05 21:55 E 15 0.00 NULL NULL 26 23 84% 28 0 0.0
05 20:55 E 15 0.00 NULL NULL 26 23 84% 28 0 0.0
05 19:55 E 15 0.00 NULL NULL 26 23 84% 28 0 0.0
05 18:55 E 13 0.00 NULL NULL 27 23 79% 30 0 0.0
05 17:55 E 17 0.00 NULL NULL 28 23 74% 31 0 0.0
05 16:55 E 20 0.00 NULL NULL 28 23 74% 31 0 0.0
05 15:55 E 20 0.00 NULL NULL 29 23 70% 33 0 0.0
05 14:55 SE 20 0.00 NULL NULL 29 23 70% 33 0 0.0
05 13:55 E 24 0.00 NULL NULL 30 23 66% 34 0 0.0
05 12:55 E 26 0.00 NULL NULL 30 23 66% 34 0 0.0
05 11:55 E 30 0.00 NULL NULL 29 23 70% 33 0 0.0
05 10:55 SE 17 0.00 NULL NULL 29 24 74% 34 0 0.0
05 09:55 SE 17 0.00 NULL NULL 29 22 66% 32 0 0.0
05 08:55 E 24 0.00 NULL NULL 29 23 70% 33 0 0.0
05 07:55 E 22 0.00 NULL NULL 28 24 79% 32 0 0.0
05 06:55 E 19 0.00 NULL NULL 27 23 79% 30 0 0.0
05 05:55 E 19 0.00 NULL NULL 26 23 84% 28 0 0.0
05 04:55 E 7 0.00 NULL NULL 26 23 84% 28 0 0.0
05 03:55 E 19 0.00 NULL NULL 27 23 79% 30 0 0.0
05 02:55 E 17 0.00 NULL NULL 27 23 79% 30 0 0.0
05 01:55 E 20 0.00 NULL NULL 26 23 84% 28 0 0.0
05 00:55 E 17 0.00 NULL NULL 27 23 79% 30 0 0.0
04 23:55 E 13 0.00 NULL NULL 26 23 84% 28 0 0.0
04 22:55 SE 9 0.00 NULL NULL 26 23 84% 28 0 0.0
04 21:55 E 11 0.00 NULL NULL 26 23 84% 28 0 0.0
04 20:55 SE 13 0.00 NULL NULL 26 23 84% 28 0 0.0
04 19:55 SE 11 0.00 NULL NULL 26 23 84% 28 0 0.0
04 18:55 SE 11 0.00 NULL NULL 27 23 79% 30 0 0.0
04 17:55 SE 13 0.00 NULL NULL 27 24 84% 30 0 0.0
Date Time (ast) Wind (kph) Vis. (km) Weather Sky Cond. Air Dwpt Max. Min. Relative Humidity Wind Chill (°C) Heat Index (°C) altimeter (cm) sea level (mb) 1 hr 3 hr 6 hr
6 hour
Temperature (ºC) Pressure Precipitation (cm)